IT9IRS-1 Weather Reports


time (UTC)temp
C
wind
direction
speed
KPH
gust
KPH
rain 1hr
cm
rain 24hr
cm
rain mn
cm
humidity
%
barometer
mb
20260504110504 20 155 22.5 33.8 0.00 0.00 0.00 74 1016.3
20260504100503 20 126 20.9 30.6 0.00 0.00 0.00 75 1016.3
20260504082004 18 110 24.1 32.2 0.00 0.00 0.00 76 1016.3
20260504081504 18 113 22.5 35.4 0.00 0.00 0.00 76 1016.3
20260504081215 18 108 22.5 35.4 0.00 0.00 0.00 76 1016.3
20260504080504 18 111 24.1 32.2 0.00 0.00 0.00 76 1016.3
20260504050503 16 115 17.7 27.4 0.00 0.00 0.00 82 1015.3
20260504050003 16 116 17.7 27.4 0.00 0.00 0.00 82 1015.3
20260504045716 16 105 19.3 27.4 0.00 0.00 0.00 82 1015.3
20260504045003 16 101 19.3 27.4 0.00 0.00 0.00 82 1015.3
20260504044504 16 101 17.7 22.5 0.00 0.00 0.00 82 1015.3
20260504044003 16 95 17.7 25.7 0.00 0.00 0.00 82 1015.3
20260504043503 16 103 17.7 25.7 0.00 0.00 0.00 82 1015.3
20260504043216 16 102 17.7 25.7 0.00 0.00 0.00 82 1015.3
20260504042504 16 108 17.7 25.7 0.00 0.00 0.00 82 1015.3
20260504042004 16 112 17.7 25.7 0.00 0.00 0.00 81 1015.3
20260504041715 16 106 17.7 25.7 0.00 0.00 0.00 81 1015.3
20260504041004 16 94 19.3 24.1 0.00 0.00 0.00 81 1015.3
20260504040505 16 97 17.7 24.1 0.00 0.00 0.00 81 1015.3
20260504040004 16 100 17.7 24.1 0.00 0.00 0.00 81 1015.3
20260504035504 16 104 17.7 24.1 0.00 0.00 0.00 81 1015.3
20260504035215 16 104 17.7 22.5 0.00 0.00 0.00 81 1015.3
20260504034504 16 117 19.3 24.1 0.00 0.00 0.00 80 1015.3
20260504034216 16 117 19.3 24.1 0.00 0.00 0.00 80 1015.3
20260504033505 16 118 19.3 24.1 0.00 0.00 0.00 80 1015.3
20260504033217 16 122 17.7 24.1 0.00 0.00 0.00 80 1015.3
20260504032504 16 119 17.7 22.5 0.00 0.00 0.00 80 1015.3
20260504032004 16 114 17.7 22.5 0.00 0.00 0.00 79 1015.3
20260504031715 16 109 17.7 22.5 0.00 0.00 0.00 79 1015.3
20260504031004 16 99 14.5 22.5 0.00 0.00 0.00 79 1015.3
20260504030504 16 109 14.5 22.5 0.00 0.00 0.00 79 1015.3
20260504030214 16 107 14.5 19.3 0.00 0.00 0.00 79 1015.3
20260504025717 16 111 14.5 19.3 0.00 0.00 0.00 79 1015.3
20260504025004 16 122 14.5 17.7 0.00 0.00 0.00 79 1015.3
20260504024504 16 127 16.1 20.9 0.00 0.00 0.00 78 1015.3
20260504024216 16 125 16.1 20.9 0.00 0.00 0.00 78 1015.3
20260504023504 16 102 14.5 20.9 0.00 0.00 0.00 78 1015.3
20260504023004 16 103 14.5 22.5 0.00 0.00 0.00 78 1015.3
20260504022504 16 112 16.1 22.5 0.00 0.00 0.00 78 1015.3
20260504022213 16 111 16.1 24.1 0.00 0.00 0.00 78 1015.3
20260504021505 16 123 14.5 24.1 0.00 0.00 0.00 78 1015.3
20260504021005 16 131 12.9 22.5 0.00 0.00 0.00 78 1015.3
20260504020717 16 119 11.3 22.5 0.00 0.00 0.00 78 1015.3
20260504020004 16 115 11.3 19.3 0.00 0.00 0.00 78 1015.3
20260504015503 16 120 14.5 19.3 0.00 0.00 0.00 78 1015.3
20260504015004 16 130 12.9 19.3 0.00 0.00 0.00 78 1015.3
20260504014504 16 143 11.3 17.7 0.00 0.00 0.00 78 1015.3
20260504014004 16 122 9.7 16.1 0.00 0.00 0.00 78 1015.3
20260504013503 16 111 11.3 19.3 0.00 0.00 0.00 78 1015.3
20260504013004 16 129 12.9 19.3 0.00 0.00 0.00 78 1015.3
20260504012503 16 128 12.9 19.3 0.00 0.00 0.00 78 1015.3
20260504012003 16 126 11.3 17.7 0.00 0.00 0.00 77 1015.3
20260504011504 16 126 12.9 16.1 0.00 0.00 0.00 77 1015.3
20260504011003 16 121 11.3 16.1 0.00 0.00 0.00 77 1015.3
20260504010503 16 117 9.7 12.9 0.00 0.00 0.00 77 1015.3
20260504010003 16 106 11.3 16.1 0.00 0.00 0.00 77 1015.3
20260504005503 16 122 12.9 19.3 0.00 0.00 0.00 77 1015.3
20260504005004 16 131 14.5 20.9 0.00 0.00 0.00 77 1015.3
20260504004503 16 121 14.5 20.9 0.00 0.00 0.00 77 1015.3
20260504004003 16 101 14.5 19.3 0.00 0.00 0.00 77 1015.3
20260504003503 16 94 14.5 19.3 0.00 0.00 0.00 77 1015.3
20260504003004 16 101 14.5 22.5 0.00 0.00 0.00 77 1015.3
20260504002504 16 109 16.1 24.1 0.00 0.00 0.00 77 1015.3
20260504002004 16 109 14.5 24.1 0.00 0.00 0.00 77 1015.3
20260504001717 16 97 12.9 20.9 0.00 0.00 0.00 76 1015.3
20260504001004 16 94 11.3 17.7 0.00 0.00 0.00 76 1015.3
20260504000504 16 99 12.9 17.7 0.00 0.00 0.00 76 1015.3
20260504000004 16 103 12.9 16.1 0.00 0.00 0.00 76 1015.3
20260503235504 16 105 12.9 19.3 0.00 0.00 0.00 75 1015.3
20260503235217 17 122 14.5 19.3 0.00 0.00 0.00 74 1015.3
20260503234504 17 141 16.1 20.9 0.00 0.00 0.00 74 1015.3
20260503234004 17 139 14.5 20.9 0.00 0.00 0.00 74 1015.3
20260503233504 17 137 12.9 20.9 0.00 0.00 0.00 74 1015.3
20260503233004 17 132 16.1 22.5 0.00 0.00 0.00 74 1015.3
20260503232504 17 135 14.5 22.5 0.00 0.00 0.00 73 1015.3
20260503232004 17 142 14.5 22.5 0.00 0.00 0.00 73 1015.3
20260503231505 17 149 12.9 22.5 0.00 0.00 0.00 73 1015.3
20260503231004 17 155 9.7 14.5 0.00 0.00 0.00 73 1016.3
20260503230504 17 154 11.3 17.7 0.00 0.00 0.00 73 1016.3
20260503230004 17 148 12.9 17.7 0.00 0.00 0.00 73 1016.3
20260503225504 17 149 12.9 17.7 0.00 0.00 0.00 73 1016.3
20260503225004 17 161 12.9 19.3 0.00 0.00 0.00 73 1016.3
20260503224505 17 165 12.9 22.5 0.00 0.00 0.00 73 1016.3
20260503224004 17 151 14.5 22.5 0.00 0.00 0.00 73 1016.3
20260503223503 17 142 12.9 22.5 0.00 0.00 0.00 73 1016.3
20260503223004 17 159 11.3 17.7 0.00 0.00 0.00 73 1016.3
20260503222504 17 154 11.3 17.7 0.00 0.00 0.00 73 1016.3
20260503222003 17 151 11.3 17.7 0.00 0.00 0.00 73 1016.3
20260503221504 17 157 12.9 17.7 0.00 0.00 0.00 73 1016.3
20260503221216 17 162 14.5 17.7 0.00 0.00 0.00 73 1016.3
20260503220714 17 158 14.5 19.3 0.00 0.00 0.00 73 1016.3
20260503220004 17 156 14.5 19.3 0.00 0.00 0.00 72 1016.3
20260503215503 17 158 11.3 19.3 0.00 0.00 0.00 72 1016.3
20260503215004 17 159 11.3 14.5 0.00 0.00 0.00 72 1016.3
20260503214504 17 151 11.3 17.7 0.00 0.00 0.00 72 1016.3
20260503214005 17 142 11.3 17.7 0.00 0.00 0.00 72 1016.3
20260503213717 17 146 9.7 17.7 0.00 0.00 0.00 72 1016.3
20260503213004 17 164 12.9 17.7 0.00 0.00 0.00 72 1016.3
20260503212504 17 165 14.5 17.7 0.00 0.00 0.00 72 1016.3
20260503212216 17 159 12.9 17.7 0.00 0.00 0.00 72 1016.3
20260503211504 17 158 12.9 19.3 0.00 0.00 0.00 72 1016.3
20260503211004 17 160 9.7 17.7 0.00 0.00 0.00 72 1016.3
20260503210504 17 151 11.3 16.1 0.00 0.00 0.00 72 1016.3
20260503210004 17 148 12.9 17.7 0.00 0.00 0.00 72 1016.3
20260503205504 17 154 11.3 17.7 0.00 0.00 0.00 72 1016.3
20260503205004 17 162 9.7 14.5 0.00 0.00 0.00 72 1016.3
20260503204504 17 158 11.3 16.1 0.00 0.00 0.00 72 1016.3
20260503204004 17 148 11.3 16.1 0.00 0.00 0.00 72 1016.3
20260503203504 17 154 11.3 14.5 0.00 0.00 0.00 71 1016.3
20260503203216 17 158 11.3 14.5 0.00 0.00 0.00 71 1016.3
20260503202503 17 141 8.0 12.9 0.00 0.00 0.00 71 1016.3
20260503202217 17 120 8.0 12.9 0.00 0.00 0.00 71 1016.3
20260503201504 17 124 8.0 12.9 0.00 0.00 0.00 71 1016.3
20260503201213 17 128 8.0 12.9 0.00 0.00 0.00 71 1016.3
20260503200503 17 108 6.4 9.7 0.00 0.00 0.00 71 1016.3
20260503200004 17 133 8.0 12.9 0.00 0.00 0.00 70 1016.3
20260503195717 17 134 6.4 12.9 0.00 0.00 0.00 70 1016.3
20260503195003 17 135 6.4 9.7 0.00 0.00 0.00 70 1016.3
20260503194504 17 146 6.4 9.7 0.00 0.00 0.00 70 1016.3
20260503194004 17 146 6.4 9.7 0.00 0.00 0.00 69 1016.3
20260503193503 17 141 6.4 11.3 0.00 0.00 0.00 69 1016.3
20260503193003 17 141 6.4 11.3 0.00 0.00 0.00 69 1016.3
20260503192503 17 143 8.0 12.9 0.00 0.00 0.00 69 1016.3
20260503192212 17 133 8.0 12.9 0.00 0.00 0.00 69 1016.3
20260503191505 17 131 6.4 9.7 0.00 0.00 0.00 69 1016.3
20260503191003 17 144 6.4 11.3 0.00 0.00 0.00 68 1015.3
20260503190503 17 145 8.0 12.9 0.00 0.00 0.00 68 1015.3
20260503190003 17 153 9.7 12.9 0.00 0.00 0.00 68 1015.3
20260503185505 17 158 9.7 12.9 0.00 0.00 0.00 68 1016.3
20260503185004 17 168 9.7 14.5 0.00 0.00 0.00 68 1016.3
20260503184504 17 176 11.3 14.5 0.00 0.00 0.00 68 1016.3
20260503184005 17 172 11.3 14.5 0.00 0.00 0.00 67 1015.3
20260503183504 17 168 11.3 12.9 0.00 0.00 0.00 67 1015.3
20260503183004 17 169 11.3 14.5 0.00 0.00 0.00 67 1015.3
20260503182505 17 170 9.7 14.5 0.00 0.00 0.00 67 1015.3
20260503182006 17 175 9.7 14.5 0.00 0.00 0.00 67 1015.3
20260503181716 17 172 9.7 14.5 0.00 0.00 0.00 67 1015.3
20260503181004 17 165 9.7 14.5 0.00 0.00 0.00 68 1015.3
20260503180504 17 160 11.3 12.9 0.00 0.00 0.00 68 1015.3
20260503180215 17 166 11.3 12.9 0.00 0.00 0.00 68 1015.3
20260503175504 17 178 11.3 17.7 0.00 0.00 0.00 68 1015.3
20260503175216 17 176 11.3 17.7 0.00 0.00 0.00 68 1015.3
20260503174714 17 171 9.7 14.5 0.00 0.00 0.00 68 1015.3
20260503174004 17 170 9.7 14.5 0.00 0.00 0.00 68 1015.3
20260503173715 17 176 9.7 14.5 0.00 0.00 0.00 68 1015.3
20260503173218 17 176 9.7 14.5 0.00 0.00 0.00 69 1015.3
20260503172504 17 180 11.3 16.1 0.00 0.00 0.00 69 1015.3
20260503172214 18 167 11.3 16.1 0.00 0.00 0.00 69 1015.3
20260503171504 17 161 9.7 17.7 0.00 0.00 0.00 69 1015.3
20260503171004 17 160 9.7 12.9 0.00 0.00 0.00 69 1015.3
20260503170504 17 154 9.7 12.9 0.00 0.00 0.00 69 1015.3
20260503160215 18 176 11.3 16.1 0.00 0.00 0.00 69 1015.3
20260503151003 18 180 16.1 22.5 0.00 0.00 0.00 67 1015.3
20260503150505 18 180 19.3 24.1 0.00 0.00 0.00 67 1015.3
20260503131003 19 186 20.9 27.4 0.00 0.00 0.00 62 1017.3
20260503130503 19 185 22.5 29.0 0.00 0.00 0.00 61 1017.3